Wind_Speed
27 28 29 30 30 30 30 31 31 29 29 29 30 30 28 26 25 22 20 19 19 19 19 20 21 23 24 24 24 24 24 24 25 26 26 26 27 27 27 27 27 27 28
28 28 29 30 30 30 30 31 31 31 31 31 31 30 30 28 25 23 20 20 19 20 20 20 21 23 23 23 24 24 25 25 25 26 27 28 29 29 29 29 29 30 30
25 27 28 28 30 30 31 31 31 31 32 32 31 31 29 28 27 25 22 21 21 21 20 19 19 20 22 22 22 22 25 26 26 26 28 28 29 29 29 30 31 32 32
24 25 27 28 29 30 30 30 31 31 32 32 32 31 29 28 26 25 24 22 21 20 20 19 18 20 21 21 22 22 23 25 26 27 28 28 29 30 30 31 32 33 33
24 25 26 27 28 30 31 31 31 31 31 31 31 31 30 29 28 26 25 25 24 23 22 21 19 19 21 21 22 23 24 24 26 27 28 28 29 30 31 31 33 34 34
24 24 24 25 27 28 29 30 30 31 30 31 31 31 30 29 27 26 26 26 25 24 23 22 22 21 22 22 22 23 24 25 26 27 28 29 29 30 31 32 33 34 35
22 23 24 24 25 26 27 28 29 30 30 31 30 30 30 29 29 28 27 26 26 26 25 24 24 23 23 23 23 23 25 26 27 28 28 29 30 30 31 32 32 33 35
19 20 21 23 23 23 24 26 27 28 28 29 29 29 29 28 28 28 28 27 26 26 26 25 25 24 24 24 24 25 26 27 28 29 30 30 31 32 33 33 34 34 35
18 18 19 20 21 22 23 24 25 26 27 28 28 29 29 28 28 28 28 28 27 26 26 25 25 25 26 26 26 26 27 28 29 29 29 31 31 32 32 33 33 34 34
19 19 19 20 20 21 21 21 22 23 24 25 26 26 27 28 28 28 28 27 27 26 26 26 26 26 26 26 27 27 27 27 28 28 29 29 30 31 31 32 33 34 34
18 18 18 18 19 19 19 20 20 22 22 22 23 24 25 26 27 28 27 27 27 27 28 27 26 26 25 26 26 27 27 27 28 28 29 30 30 31 32 32 34 35 36
17 18 17 18 18 18 19 19 20 20 21 22 22 23 24 24 25 26 26 26 26 26 26 26 25 26 26 26 27 27 28 28 28 29 29 29 30 31 32 32 34 34 35
17 17 16 16 17 18 19 19 19 20 20 21 22 22 22 22 22 23 23 23 23 23 24 24 25 26 26 26 27 27 27 27 27 28 29 29 30 31 32 32 33 34 35
16 17 16 16 17 17 18 19 19 19 19 19 20 20 21 21 21 21 23 22 22 23 23 24 24 25 25 25 26 26 26 26 27 27 28 29 31 31 32 33 33 34 34
17 17 16 16 16 17 17 18 18 18 17 17 18 18 18 18 19 20 20 21 21 21 22 23 22 22 23 24 25 26 26 27 27 28 29 29 30 31 31 31 31 31 31
18 17 17 17 17 17 17 16 16 16 15 15 15 15 16 17 17 17 18 18 19 20 20 20 21 22 22 23 24 25 26 27 27 28 29 29 29 29 29 28 28 28 28
17 16 16 16 17 16 15 14 13 13 12 13 13 14 13 13 14 15 15 17 17 18 19 19 20 21 22 23 24 24 25 26 26 27 27 27 26 25 25 25 25 26 26
15 14 14 14 14 14 13 11 11 11 11 11 11 11 12 12 13 13 14 14 15 16 17 18 19 20 20 21 22 22 23 23 23 23 23 23 23 23 23 24 24 24 24
13 12 12 12 12 11 10 9 9 10 9 10 10 10 11 10 10 11 12 13 13 14 15 16 17 17 17 18 18 19 20 20 20 20 20 21 21 21 22 22 22 22 22
12 11 10 10 9 8 8 8 8 9 9 9 9 9 9 8 9 9 9 10 10 11 12 13 14 14 14 15 16 17 17 18 18 17 17 18 18 18 19 19 19 19 19
10 9 9 8 7 6 6 6 7 7 7 7 7 7 8 8 8 9 9 9 9 10 11 11 12 12 13 13 14 14 14 14 14 14 15 15 15 16 16 16 16 16 16
8 7 7 6 6 5 5 5 5 5 4 4 5 6 6 7 7 7 8 8 9 8 9 9 9 10 10 10 10 10 11 11 12 13 13 13 14 14 15 15 15 14 14
6 5 5 4 3 3 3 2 2 2 2 2 3 3 3 4 4 5 5 6 6 6 6 7 8 8 8 8 8 9 10 10 11 12 12 13 13 13 13 13 13 12 12
5 4 4 3 2 2 2 2 1 1 0 0 0 1 1 2 3 3 3 3 4 4 5 5 6 6 6 7 7 8 9 10 10 11 11 11 11 11 11 10 10 10 10
5 5 5 4 3 3 3 4 4 4 3 3 3 3 3 3 3 3 2 2 2 3 3 3 4 4 5 6 7 7 8 8 8 8 9 9 9 8 8 9 9 9 9
8 7 7 6 6 6 6 5 6 6 5 5 4 5 5 5 5 5 5 4 4 3 3 3 4 4 5 6 6 6 7 7 7 7 7 7 7 7 8 8 7 7 7
Wind_Direction
263 263 263 263 264 264 265 263 262 261 263 265 266 267 261 262 262 260 263 265 264 265 265 262 255 253 253 255 257 253 248 245 246 247 250 250 250 250 253 256 259 261 263
268 268 265 265 265 264 263 264 263 263 264 266 267 268 269 267 266 271 274 271 266 269 269 263 255 252 253 254 255 252 247 247 246 247 250 250 250 253 255 257 260 262 264
270 270 268 266 266 265 264 264 264 263 264 265 265 267 267 268 270 273 277 274 269 270 268 261 256 255 255 254 253 249 249 248 246 246 248 251 252 255 257 260 262 264 265
269 269 269 269 267 266 265 266 267 264 263 263 264 265 266 267 268 270 272 274 274 273 270 267 266 262 255 251 250 250 249 247 248 249 253 255 256 257 258 262 264 266 268
268 270 269 267 267 267 267 267 268 266 265 264 264 265 264 266 266 268 269 272 275 277 276 273 272 264 256 252 252 254 252 250 252 254 257 258 259 260 261 264 266 267 271
272 270 268 268 267 268 268 268 267 266 266 265 264 264 263 264 265 266 267 269 271 272 273 273 272 267 261 258 257 257 254 253 256 258 259 259 263 264 264 266 267 269 271
273 270 270 271 271 270 269 268 266 265 264 264 264 264 263 262 263 265 266 267 268 268 270 271 270 266 263 262 261 260 258 258 259 260 261 262 264 265 267 269 271 272 273
277 275 273 273 273 273 272 269 266 263 263 263 263 263 262 262 262 263 264 266 267 268 268 269 267 267 265 263 262 262 264 264 264 264 263 265 266 266 268 271 272 274 275
282 281 278 276 275 275 274 271 267 265 265 264 264 263 261 260 260 261 263 265 266 266 265 264 265 266 264 263 263 264 265 265 266 266 267 268 268 268 270 273 274 275 276
288 287 281 277 277 276 275 273 268 266 265 263 263 262 261 260 260 262 265 266 266 264 264 265 265 265 263 262 262 264 265 266 268 270 271 271 272 273 273 275 277 277 278
290 287 283 280 279 276 274 271 269 266 265 264 263 261 260 260 260 263 265 265 266 265 263 264 265 266 265 264 264 265 267 269 271 272 272 273 275 276 277 278 279 279 280
293 293 291 283 277 275 273 272 271 268 266 264 263 262 260 261 261 262 263 263 264 262 261 263 263 265 264 264 266 267 268 269 270 271 273 275 277 277 278 279 280 280 281
298 297 294 287 279 277 274 272 271 271 269 265 264 263 262 261 262 261 261 261 261 262 263 263 263 265 265 264 265 266 267 268 270 272 274 276 277 278 279 279 280 280 280
299 298 295 289 283 280 276 272 271 273 270 265 263 263 262 261 261 261 260 259 260 261 262 262 263 264 264 264 265 265 266 269 272 274 275 276 277 277 278 278 279 280 281
301 298 293 290 286 283 279 274 270 271 270 265 262 261 261 261 262 262 258 257 259 260 260 260 261 263 264 265 265 266 268 270 270 272 274 274 275 277 277 278 279 281 282
302 295 289 289 289 286 282 275 271 270 268 263 263 261 260 262 262 261 260 261 261 263 262 263 263 262 262 263 264 266 268 269 270 272 274 275 277 278 279 279 281 282 283
301 295 290 287 285 283 281 275 273 273 270 264 262 259 261 260 260 261 263 263 262 262 260 261 262 263 263 264 267 268 270 270 271 273 276 279 280 280 280 282 283 284 285
303 298 293 288 286 283 278 276 269 268 267 266 265 261 264 262 264 264 264 263 261 261 261 264 265 266 266 266 267 269 270 271 274 277 278 280 281 281 282 284 285 285 286
307 301 294 289 286 283 283 275 265 264 263 265 268 272 269 265 265 265 265 266 264 263 265 266 267 266 265 266 269 270 272 274 277 278 280 281 282 283 284 286 287 288 287
310 301 297 299 293 286 280 272 265 261 266 271 270 271 270 271 269 269 270 267 267 268 269 270 269 269 269 270 273 275 276 277 279 281 283 283 285 286 288 290 290 290 290
312 303 302 301 295 289 280 275 275 273 274 270 266 269 272 272 270 270 269 270 273 273 273 274 274 274 274 274 274 276 278 280 282 284 286 288 290 291 292 293 293 293 292
315 307 305 301 296 289 287 286 280 276 270 269 270 274 276 275 271 269 270 272 276 276 277 278 279 279 280 280 279 280 284 286 288 289 290 291 293 294 294 294 295 295 295
328 326 325 319 315 309 305 298 282 273 270 264 270 277 281 285 284 280 277 277 278 280 285 287 286 287 289 290 291 293 295 295 295 294 295 296 297 297 296 296 296 296 295
356 1 6 12 9 22 28 25 36 60 66 190 343 11 352 335 323 312 303 296 295 296 300 301 300 301 302 302 303 303 302 301 301 300 300 301 301 301 301 300 299 298 298
35 43 48 55 64 69 74 73 75 84 92 101 95 63 38 25 18 13 7 352 337 333 333 332 330 328 324 321 319 319 318 317 315 313 311 310 310 309 309 309 306 305 306
55 63 69 75 78 80 79 84 84 87 92 94 86 73 61 58 57 54 53 52 49 38 25 20 14 4 357 352 348 344 340 338 336 333 329 326 324 323 322 321 320 318 317
Height
5813 5814 5814 5814 5814 5815 5815 5815 5816 5817 5818 5819 5819 5819 5819 5819 5820 5820 5821 5822 5822 5823 5823 5824 5824 5824 5826 5827 5828 5830 5830 5832 5834 5835 5836 5837 5838 5840 5841 5842 5842 5843 5843
5807 5807 5808 5808 5808 5809 5809 5809 5810 5810 5811 5812 5813 5814 5814 5814 5814 5815 5816 5817 5818 5818 5818 5818 5818 5819 5820 5821 5822 5823 5825 5826 5827 5829 5830 5831 5832 5833 5835 5836 5836 5836 5836
5801 5801 5801 5801 5801 5801 5801 5802 5803 5804 5805 5806 5807 5808 5808 5808 5808 5810 5811 5812 5812 5813 5813 5812 5813 5813 5815 5816 5817 5818 5819 5820 5821 5823 5824 5825 5826 5826 5827 5828 5829 5829 5829
5796 5795 5795 5794 5794 5794 5794 5794 5796 5797 5798 5799 5800 5802 5802 5803 5803 5804 5806 5807 5807 5807 5807 5807 5807 5808 5809 5811 5812 5812 5813 5814 5815 5816 5818 5819 5820 5820 5820 5821 5821 5821 5822
5789 5789 5788 5788 5788 5788 5788 5789 5789 5790 5791 5792 5794 5795 5796 5796 5797 5799 5800 5801 5802 5802 5803 5803 5803 5803 5803 5805 5806 5807 5808 5808 5809 5810 5811 5812 5813 5813 5814 5813 5814 5814 5813
5783 5782 5781 5781 5781 5781 5781 5781 5782 5783 5784 5786 5787 5788 5789 5790 5791 5793 5794 5795 5796 5796 5797 5797 5797 5797 5798 5799 5800 5801 5802 5802 5803 5804 5805 5805 5805 5806 5806 5806 5806 5805 5805
5776 5776 5775 5775 5775 5775 5775 5774 5775 5776 5777 5779 5780 5781 5782 5784 5785 5786 5787 5788 5789 5790 5790 5791 5791 5792 5792 5792 5793 5794 5795 5796 5797 5797 5798 5798 5798 5798 5798 5798 5798 5797 5797
5771 5770 5769 5769 5769 5768 5767 5768 5768 5769 5770 5771 5773 5774 5775 5777 5778 5779 5780 5782 5782 5783 5783 5784 5785 5785 5786 5787 5787 5788 5788 5789 5790 5790 5790 5790 5790 5791 5790 5790 5790 5789 5788
5766 5765 5764 5764 5763 5762 5761 5761 5762 5763 5763 5765 5766 5767 5768 5770 5771 5772 5773 5774 5775 5776 5777 5777 5778 5778 5779 5780 5781 5781 5782 5782 5782 5783 5783 5783 5783 5782 5782 5782 5781 5781 5780
5761 5760 5759 5758 5757 5757 5756 5755 5755 5756 5757 5758 5759 5760 5761 5762 5764 5765 5766 5767 5768 5769 5770 5770 5771 5772 5772 5773 5773 5774 5775 5775 5775 5775 5775 5775 5775 5774 5773 5773 5772 5771 5771
5756 5755 5754 5752 5751 5751 5750 5750 5750 5750 5751 5751 5752 5753 5754 5755 5757 5758 5759 5760 5761 5761 5762 5763 5764 5764 5765 5765 5766 5767 5767 5767 5767 5767 5767 5767 5766 5765 5765 5764 5763 5762 5761
5751 5750 5748 5747 5746 5745 5745 5744 5744 5744 5744 5745 5746 5747 5748 5749 5750 5751 5752 5752 5753 5754 5755 5755 5756 5757 5757 5758 5759 5759 5759 5759 5759 5759 5759 5758 5758 5757 5756 5755 5754 5752 5751
5746 5744 5743 5741 5740 5740 5739 5738 5738 5738 5738 5738 5739 5740 5741 5742 5743 5744 5745 5745 5746 5747 5747 5748 5749 5749 5750 5751 5751 5751 5751 5751 5751 5751 5750 5750 5749 5748 5747 5746 5744 5743 5741
5741 5740 5738 5737 5735 5734 5733 5733 5732 5732 5732 5732 5732 5733 5734 5735 5736 5737 5738 5738 5739 5740 5741 5741 5742 5742 5743 5743 5744 5744 5744 5744 5743 5743 5742 5741 5740 5739 5738 5736 5735 5733 5732
5737 5735 5733 5731 5730 5729 5727 5727 5727 5726 5726 5726 5726 5727 5728 5728 5729 5730 5731 5732 5732 5733 5734 5734 5735 5735 5735 5736 5736 5736 5736 5736 5735 5735 5734 5733 5731 5730 5729 5728 5726 5724 5722
5731 5729 5728 5726 5725 5723 5722 5721 5721 5721 5721 5721 5721 5722 5722 5723 5724 5724 5725 5725 5726 5726 5727 5727 5728 5728 5729 5729 5729 5729 5729 5728 5728 5727 5726 5724 5723 5722 5721 5719 5717 5716 5714
5726 5724 5722 5721 5719 5718 5717 5716 5716 5716 5716 5716 5717 5717 5717 5718 5718 5719 5719 5720 5720 5720 5721 5721 5721 5721 5722 5722 5722 5721 5721 5721 5720 5719 5718 5717 5716 5714 5713 5712 5710 5708 5706
5721 5719 5717 5716 5715 5714 5713 5712 5712 5712 5713 5713 5713 5713 5713 5714 5714 5714 5714 5714 5715 5715 5715 5715 5715 5715 5715 5715 5715 5715 5714 5713 5713 5712 5711 5710 5709 5707 5706 5704 5703 5701 5699
5716 5714 5713 5712 5710 5709 5709 5709 5709 5709 5709 5709 5709 5709 5709 5710 5710 5710 5710 5710 5710 5710 5710 5710 5710 5710 5709 5709 5709 5708 5708 5707 5706 5706 5704 5703 5702 5701 5699 5698 5696 5694 5692
5712 5710 5709 5708 5707 5706 5706 5706 5706 5706 5706 5706 5706 5706 5706 5706 5706 5706 5706 5706 5706 5706 5706 5705 5705 5705 5704 5704 5703 5703 5702 5702 5701 5700 5698 5697 5696 5694 5693 5691 5690 5688 5686
5709 5707 5706 5705 5704 5703 5703 5703 5703 5703 5703 5703 5703 5703 5703 5703 5703 5703 5703 5703 5702 5702 5702 5702 5701 5700 5700 5699 5699 5698 5698 5697 5696 5695 5693 5692 5691 5689 5688 5686 5685 5683 5681
5706 5705 5703 5702 5702 5701 5701 5700 5700 5700 5700 5700 5700 5700 5700 5700 5700 5700 5700 5700 5699 5699 5699 5698 5698 5697 5696 5696 5695 5694 5693 5692 5692 5690 5689 5688 5686 5685 5683 5682 5680 5679 5677
5704 5702 5701 5700 5700 5699 5699 5699 5699 5698 5698 5698 5698 5698 5698 5698 5698 5697 5697 5697 5697 5697 5696 5696 5695 5695 5694 5693 5692 5691 5690 5689 5688 5687 5685 5684 5682 5681 5679 5678 5676 5675 5674
5702 5701 5700 5699 5699 5698 5698 5698 5697 5697 5697 5697 5697 5697 5697 5697 5696 5696 5696 5696 5695 5695 5694 5694 5693 5692 5692 5691 5690 5689 5687 5686 5685 5683 5682 5681 5679 5678 5676 5675 5673 5672 5670
5702 5701 5700 5699 5699 5698 5698 5698 5697 5697 5697 5697 5697 5697 5697 5696 5696 5695 5695 5695 5694 5694 5693 5693 5692 5691 5690 5689 5688 5687 5685 5684 5682 5681 5679 5678 5677 5675 5674 5672 5670 5669 5668
5703 5701 5701 5700 5699 5699 5699 5698 5698 5698 5698 5698 5698 5698 5698 5697 5696 5696 5695 5694 5694 5694 5693 5692 5692 5690 5689 5688 5687 5685 5684 5682 5681 5679 5678 5676 5675 5673 5671 5670 5668 5667 5666